TimeCST,TemperatureF,Dew PointF,Humidity,Sea Level PressureIn,VisibilityMPH,Wind Direction,Wind SpeedMPH,Gust SpeedMPH,PrecipitationIn,Events,Conditions,WindDirDegrees,DateUTC
12:15 AM,47.3,36.1,65,30.26,10.0,NNE,8.1,-,N/A,,Overcast,20,2013-11-25 06:15:00
12:35 AM,47.3,35.8,64,30.26,10.0,North,8.1,-,N/A,,Overcast,10,2013-11-25 06:35:00
12:55 AM,47.3,36.0,65,30.26,10.0,North,6.9,-,N/A,,Overcast,10,2013-11-25 06:55:00
1:15 AM,47.3,36.0,65,30.24,10.0,North,9.2,-,N/A,,Overcast,10,2013-11-25 07:15:00
1:35 AM,47.3,35.8,64,30.24,10.0,North,9.2,-,N/A,,Overcast,360,2013-11-25 07:35:00
1:55 AM,46.9,35.8,65,30.22,10.0,North,11.5,-,N/A,,Overcast,10,2013-11-25 07:55:00
2:15 AM,46.8,36.0,66,30.21,10.0,NNE,10.4,-,N/A,,Overcast,20,2013-11-25 08:15:00
2:35 AM,46.6,36.3,67,30.19,10.0,NNE,12.7,17.3,N/A,,Overcast,20,2013-11-25 08:35:00
2:55 AM,46.6,36.7,68,30.19,10.0,North,10.4,-,N/A,,Overcast,10,2013-11-25 08:55:00
3:15 AM,46.4,36.7,69,30.18,10.0,NNE,11.5,17.3,N/A,,Overcast,20,2013-11-25 09:15:00
3:35 AM,46.0,37.2,71,30.16,10.0,NNE,12.7,18.4,N/A,,Overcast,20,2013-11-25 09:35:00
3:55 AM,46.0,37.6,72,30.16,10.0,NNE,10.4,-,N/A,,Overcast,30,2013-11-25 09:55:00
4:15 AM,45.7,38.7,76,30.16,10.0,NNE,10.4,-,N/A,Rain,Light Rain,20,2013-11-25 10:15:00
4:35 AM,44.8,39.4,81,30.14,10.0,NNE,13.8,-,N/A,Rain,Rain,30,2013-11-25 10:35:00
4:55 AM,44.2,40.1,85,30.14,10.0,North,11.5,-,0.01,,Drizzle,10,2013-11-25 10:55:00
5:15 AM,43.9,40.6,88,30.17,10.0,NNW,11.5,-,N/A,,Overcast,340,2013-11-25 11:15:00
5:35 AM,43.7,40.8,90,30.16,10.0,North,11.5,17.3,N/A,,Overcast,360,2013-11-25 11:35:00
5:55 AM,43.3,41.0,91,30.15,7.0,North,12.7,18.4,0.01,Rain,Rain,10,2013-11-25 11:55:00
6:15 AM,43.0,41.0,93,30.16,10.0,North,11.5,-,N/A,,Overcast,350,2013-11-25 12:15:00
6:35 AM,42.8,41.2,94,30.14,2.0,North,13.8,18.4,0.09,Rain,Light Rain,10,2013-11-25 12:35:00
6:55 AM,42.4,41.0,95,30.13,7.0,NNE,10.4,18.4,0.11,Rain,Light Rain,20,2013-11-25 12:55:00
7:15 AM,42.4,41.2,95,30.14,7.0,North,12.7,21.9,0.01,Rain,Light Rain,10,2013-11-25 13:15:00
7:35 AM,42.3,41.0,95,30.15,10.0,North,11.5,17.3,0.02,Rain,Rain,360,2013-11-25 13:35:00
7:55 AM,42.4,41.2,95,30.15,5.0,North,11.5,18.4,0.06,Rain,Rain,10,2013-11-25 13:55:00
8:15 AM,42.6,41.2,95,30.17,10.0,North,11.5,-,N/A,Rain,Light Rain,350,2013-11-25 14:15:00
8:35 AM,42.4,41.2,95,30.16,10.0,North,13.8,20.7,0.01,Rain,Light Rain,360,2013-11-25 14:35:00
8:55 AM,42.3,41.0,95,30.16,10.0,North,16.1,19.6,0.01,,Overcast,10,2013-11-25 14:55:00
9:15 AM,42.3,41.0,95,30.16,10.0,NNE,12.7,19.6,N/A,,Overcast,20,2013-11-25 15:15:00
9:35 AM,42.4,41.0,95,30.16,10.0,North,16.1,20.7,N/A,,Overcast,10,2013-11-25 15:35:00
9:55 AM,42.4,41.0,95,30.15,10.0,NNE,10.4,17.3,N/A,,Overcast,20,2013-11-25 15:55:00
10:15 AM,42.6,41.2,95,30.15,7.0,NNE,11.5,-,N/A,,Overcast,20,2013-11-25 16:15:00
10:35 AM,42.6,41.2,95,30.15,3.0,NNE,10.4,-,N/A,,Overcast,20,2013-11-25 16:35:00
10:55 AM,42.8,41.7,96,30.15,2.5,North,10.4,17.3,N/A,,Overcast,360,2013-11-25 16:55:00
11:15 AM,42.8,41.9,97,30.13,2.5,NNE,11.5,17.3,N/A,,Overcast,20,2013-11-25 17:15:00
11:35 AM,43.0,42.1,97,30.12,7.0,North,12.7,17.3,N/A,,Overcast,10,2013-11-25 17:35:00
11:55 AM,43.3,42.4,97,30.11,4.0,North,10.4,16.1,N/A,,Overcast,10,2013-11-25 17:55:00
12:15 PM,43.7,42.8,97,30.09,3.0,North,13.8,-,N/A,,Overcast,10,2013-11-25 18:15:00
12:35 PM,43.7,42.8,97,30.08,3.0,North,11.5,23.0,N/A,,Overcast,360,2013-11-25 18:35:00
12:55 PM,43.9,42.8,96,30.07,4.0,North,10.4,21.9,N/A,,Overcast,360,2013-11-25 18:55:00
1:15 PM,44.1,43.0,96,30.05,4.0,North,9.2,18.4,N/A,,Overcast,10,2013-11-25 19:15:00
1:35 PM,44.6,43.3,95,30.03,5.0,North,12.7,-,N/A,,Overcast,10,2013-11-25 19:35:00
1:55 PM,44.8,43.5,95,30.02,7.0,North,13.8,17.3,N/A,,Overcast,10,2013-11-25 19:55:00
2:15 PM,45.3,43.9,95,30.01,10.0,North,11.5,18.4,N/A,,Overcast,10,2013-11-25 20:15:00
2:35 PM,45.5,43.9,94,30.01,10.0,North,13.8,-,N/A,,Overcast,360,2013-11-25 20:35:00
2:55 PM,45.5,43.9,94,30.02,10.0,North,11.5,-,N/A,Rain,Light Rain,360,2013-11-25 20:55:00
3:15 PM,45.5,43.9,94,30.05,5.0,NW,11.5,-,0.01,Rain,Rain,320,2013-11-25 21:15:00
3:35 PM,45.1,44.1,96,30.04,2.5,NW,11.5,-,0.03,Rain,Rain,320,2013-11-25 21:35:00
3:55 PM,45.0,43.9,96,30.01,4.0,North,13.8,-,0.05,Rain,Rain,350,2013-11-25 21:55:00
4:15 PM,44.8,43.9,97,30.03,2.5,NNW,9.2,-,0.05,Rain,Heavy Rain,340,2013-11-25 22:15:00
4:35 PM,45.0,43.9,96,30.03,1.2,NNE,10.4,-,0.16,Rain,Light Rain,30,2013-11-25 22:35:00
4:55 PM,45.0,43.9,96,30.02,10.0,North,11.5,-,0.17,,Light Drizzle,360,2013-11-25 22:55:00
5:15 PM,44.8,43.7,96,30.03,10.0,North,8.1,-,0.01,Rain,Light Rain,360,2013-11-25 23:15:00
5:35 PM,44.6,43.7,97,30.04,3.0,NW,10.4,-,0.10,Rain,Rain,320,2013-11-25 23:35:00
5:55 PM,44.2,43.3,97,30.01,1.0,North,11.5,-,0.36,Rain,Light Rain,360,2013-11-25 23:55:00
6:15 PM,44.1,43.2,97,30.03,10.0,North,11.5,-,N/A,,Overcast,350,2013-11-26 00:15:00
6:35 PM,44.4,43.2,95,30.04,10.0,North,11.5,-,N/A,,Overcast,350,2013-11-26 00:35:00
6:55 PM,44.6,43.2,95,30.06,10.0,North,13.8,18.4,N/A,,Overcast,350,2013-11-26 00:55:00
7:15 PM,44.4,43.0,95,30.06,10.0,North,11.5,18.4,N/A,,Light Drizzle,350,2013-11-26 01:15:00
7:35 PM,44.1,42.8,95,30.05,5.0,North,12.7,17.3,N/A,,Overcast,350,2013-11-26 01:35:00
7:55 PM,43.9,42.8,96,30.05,10.0,North,13.8,19.6,N/A,,Overcast,350,2013-11-26 01:55:00
8:15 PM,43.9,42.6,95,30.06,10.0,NNW,11.5,-,N/A,,Overcast,340,2013-11-26 02:15:00
8:35 PM,43.9,42.6,95,30.06,10.0,NNW,11.5,18.4,N/A,,Overcast,330,2013-11-26 02:35:00
8:55 PM,43.9,42.4,95,30.06,7.0,NNW,13.8,19.6,N/A,,Overcast,330,2013-11-26 02:55:00
9:15 PM,43.7,42.4,95,30.02,5.0,North,15.0,24.2,N/A,,Overcast,10,2013-11-26 03:15:00
9:35 PM,43.5,42.3,95,30.01,10.0,North,13.8,23.0,N/A,Rain,Light Rain,350,2013-11-26 03:35:00
9:55 PM,43.7,42.3,95,29.99,10.0,North,15.0,20.7,N/A,,Overcast,10,2013-11-26 03:55:00
10:15 PM,43.7,42.1,94,29.99,10.0,North,15.0,18.4,N/A,,Overcast,360,2013-11-26 04:15:00
10:35 PM,43.7,42.1,94,30.03,10.0,NNW,13.8,20.7,N/A,,Overcast,340,2013-11-26 04:35:00
10:55 PM,43.7,41.9,93,30.04,10.0,NW,13.8,21.9,N/A,,Overcast,320,2013-11-26 04:55:00
11:15 PM,43.7,41.9,93,30.03,10.0,NNW,11.5,-,N/A,,Overcast,330,2013-11-26 05:15:00
11:35 PM,43.3,41.5,93,30.04,10.0,NNW,13.8,19.6,N/A,,Light Drizzle,330,2013-11-26 05:35:00
11:55 PM,43.3,41.4,93,30.04,10.0,NW,12.7,21.9,N/A,,Overcast,320,2013-11-26 05:55:00